Theta_e
304 304 304 303 303 302 301 301 298 293 295 296 296 298 298 298 300 299 299 308 310 311 314 312 305 303 300 300 297 296 296 297 298 299 299 300 301 301
305 303 304 303 304 302 301 301 298 297 294 298 296 296 298 298 299 297 297 303 307 310 309 306 303 301 299 297 296 296 296 296 297 298 298 299 299 300
305 304 304 303 304 302 300 299 298 297 294 295 297 296 294 294 296 294 295 296 300 308 306 303 301 299 299 296 295 295 295 295 296 296 296 297 298 298
306 304 304 304 303 302 301 299 299 298 296 294 294 294 294 294 294 292 294 297 298 305 304 302 300 299 298 296 295 295 294 294 294 294 295 296 296 296
307 306 306 303 302 301 301 299 298 299 296 295 292 293 292 292 290 291 291 292 297 301 303 301 300 299 298 296 295 295 294 292 292 293 294 294 294 295
307 307 307 304 304 301 302 301 299 298 295 294 292 292 292 291 292 290 289 290 292 295 298 297 298 297 298 297 295 294 293 291 291 292 294 293 293 293
304 305 306 305 304 304 303 301 299 298 294 293 291 291 290 289 291 291 291 290 288 289 290 289 289 289 290 296 293 292 292 291 291 292 293 292 292 292
302 301 302 301 303 305 305 304 303 299 295 294 292 291 291 292 293 290 288 286 285 288 286 285 287 286 287 286 290 291 291 291 291 291 292 292 292 292
302 301 300 302 302 303 304 304 303 303 302 299 296 295 294 294 293 290 289 288 286 286 285 284 285 285 286 286 291 291 291 291 290 291 291 291 291 291
303 303 302 301 301 301 301 300 300 301 301 301 300 298 297 296 295 293 290 286 284 284 285 283 283 282 283 282 288 289 290 289 289 289 289 289 289 289
301 301 301 300 301 302 300 298 296 295 300 300 298 297 297 297 294 289 286 285 282 282 283 282 281 281 281 280 281 288 287 286 287 287 287 287 288 288
297 298 300 299 300 301 299 295 291 290 292 292 292 294 295 295 295 291 288 286 283 282 283 282 281 281 277 279 279 280 279 284 285 285 286 286 286 281
294 294 295 299 299 300 297 293 292 291 292 287 286 285 285 285 285 286 288 287 282 282 284 282 278 279 277 277 278 279 278 278 278 279 282 284 285 285
293 293 294 297 298 299 294 294 294 291 286 285 284 283 283 283 282 283 283 283 284 284 284 281 274 275 271 273 275 277 277 278 278 278 279 281 283 284
294 294 295 296 297 296 293 294 292 286 285 284 283 282 283 282 281 281 281 282 281 282 281 281 278 277 272 268 271 275 276 277 277 276 278 278 277 278
294 294 295 295 295 293 292 292 286 286 285 284 282 282 282 281 281 281 280 280 278 278 280 281 280 278 272 275 275 273 275 272 277 277 277 278 278 278
292 291 289 289 288 288 287 285 285 285 283 283 282 281 281 281 280 280 279 276 272 273 274 277 279 279 277 273 266 270 270 272 275 276 275 275 277 277
289 287 286 287 287 286 284 284 285 285 283 283 282 281 280 279 278 277 274 270 269 271 270 273 272 270 270 274 276 268 271 270 272 274 274 273 273 277
287 286 285 286 286 285 284 284 283 283 283 282 281 280 279 278 278 275 271 272 270 269 269 268 264 262 261 264 272 278 268 271 274 273 273 272 272 275
286 285 285 285 285 285 284 283 282 282 281 281 280 279 279 278 275 273 274 272 272 268 266 265 264 263 263 264 265 271 279 273 271 272 273 275 277 281
285 285 285 285 285 284 284 282 282 281 280 279 279 279 278 277 275 275 274 276 273 264 265 266 267 276 266 266 264 270 273 279 278 273 273 271 271 272
285 285 285 285 284 284 283 282 281 282 279 279 279 279 278 277 275 274 274 272 268 266 264 265 268 264 263 267 266 268 272 274 276 279 280 278 267 269
285 285 284 284 284 283 283 282 281 279 279 279 279 278 277 275 276 274 271 271 268 265 265 264 264 264 266 266 269 265 267 269 271 272 272 279 281 281
Wind_Speed
10 10 9 5 4 4 4 5 6 5 8 5 4 5 5 5 7 6 6 10 10 8 10 12 11 8 6 4 2 1 2 4 7 7 8 10 12 11
7 9 9 4 6 4 4 4 3 5 4 5 6 3 5 6 6 6 6 8 9 8 11 11 11 9 7 4 4 4 5 5 7 7 9 10 11 12
9 10 11 7 6 6 4 3 4 4 4 2 1 3 4 5 5 4 4 5 4 12 13 11 9 9 8 7 6 5 6 6 7 8 9 10 10 10
12 10 11 7 9 7 6 9 7 5 4 4 2 2 3 4 5 5 4 3 4 10 13 13 11 10 9 8 7 7 7 6 7 8 10 9 9 10
12 12 12 9 10 5 7 6 5 4 3 4 4 2 1 2 3 2 2 3 2 4 13 13 11 10 10 9 9 8 7 6 7 9 10 9 9 12
10 11 10 12 12 10 9 9 6 7 4 4 3 3 2 1 3 4 3 1 2 3 4 6 8 9 11 11 10 9 8 7 7 10 10 9 10 13
6 8 9 11 13 12 8 7 8 6 4 4 3 3 3 3 8 3 3 3 2 3 4 3 3 3 3 10 7 8 9 8 9 10 10 9 12 14
8 6 6 7 8 11 14 15 14 10 7 5 4 4 5 4 5 5 4 3 4 5 4 3 3 3 3 3 9 11 10 10 10 10 10 12 13 14
5 5 4 3 7 5 10 10 11 14 10 11 9 6 6 7 8 7 7 5 4 2 4 3 3 4 3 4 10 11 10 10 8 9 11 12 12 15
7 7 8 7 8 7 7 8 7 7 8 6 7 6 5 8 10 9 8 5 3 3 1 3 2 2 1 2 6 8 10 6 6 8 10 13 14 15
5 5 6 7 9 12 8 7 5 4 5 8 7 9 11 14 11 8 6 7 2 2 2 3 3 2 1 1 3 10 3 2 4 10 12 12 13 15
3 3 7 6 9 12 8 7 6 5 7 5 4 4 7 9 17 7 8 8 3 2 3 3 2 2 2 1 1 1 1 2 9 10 11 11 15 4
2 2 1 5 6 9 9 7 6 9 11 8 6 4 6 6 4 4 4 6 4 2 4 4 2 2 1 2 2 1 1 2 2 4 9 13 15 15
3 2 3 7 7 10 7 8 15 12 7 7 7 5 5 5 4 5 5 5 4 4 8 5 3 3 3 1 2 2 2 3 1 3 4 10 15 18
1 3 6 7 8 11 9 12 14 6 7 6 6 4 3 5 7 5 7 9 9 7 4 3 4 3 3 3 2 1 3 2 2 2 6 6 8 7
3 3 3 5 8 9 8 11 5 4 6 6 6 5 5 4 4 3 3 4 4 3 4 4 4 3 2 2 2 2 2 2 2 4 6 8 8 7
2 2 1 3 4 4 4 5 5 5 6 6 7 6 6 5 4 3 3 2 3 3 2 1 3 2 2 4 1 2 1 2 3 4 6 9 8 7
2 1 0 3 6 6 6 6 5 7 5 6 6 6 5 5 5 2 2 3 3 2 2 0 2 3 3 2 5 1 1 1 2 5 3 5 10 9
2 2 3 3 3 5 6 6 5 5 7 6 6 6 6 6 8 4 3 3 3 3 1 1 2 3 2 1 3 3 2 2 3 6 4 4 8 14
2 2 3 3 4 4 5 4 6 6 6 6 7 7 7 7 6 4 4 3 4 2 2 1 2 2 3 3 2 3 7 3 2 6 8 7 10 22
2 3 3 4 4 5 5 5 7 7 7 7 7 7 7 7 6 5 5 9 7 2 2 1 2 1 1 2 3 4 3 8 8 6 5 6 5 5
3 4 4 5 5 6 6 6 6 7 7 7 7 7 7 6 6 6 4 4 3 3 3 1 2 2 2 2 3 4 6 5 9 12 15 12 4 5
2 3 3 4 5 6 6 7 7 7 7 7 7 7 7 7 6 5 4 4 4 3 2 1 1 2 2 3 4 3 5 5 3 6 3 10 13 18
Wind_Direction
200 196 200 193 180 176 165 166 148 172 221 222 194 194 186 181 199 181 177 193 197 216 216 170 179 185 197 183 195 276 294 304 303 312 318 321 320 322
200 196 204 191 194 175 171 179 157 149 203 185 211 169 176 189 196 175 181 185 195 207 154 158 177 184 193 195 206 241 271 294 298 307 313 319 318 321
197 199 206 192 195 191 174 172 173 148 158 265 140 174 157 166 172 172 175 180 190 176 171 172 184 197 191 206 221 246 268 286 293 304 317 313 313 323
196 196 208 193 201 193 180 199 191 176 138 159 178 146 181 192 157 165 179 180 172 184 180 188 195 199 209 221 235 255 272 279 290 305 308 306 308 316
198 200 208 191 205 185 199 192 173 161 154 140 161 146 128 158 132 131 159 135 168 195 202 196 204 214 222 231 244 256 268 277 295 308 298 294 300 312
199 200 199 196 206 195 197 196 172 171 158 140 155 147 132 151 129 154 171 131 139 210 201 188 207 227 233 235 249 252 251 262 284 299 287 288 301 310
198 203 200 198 203 194 187 194 170 172 152 161 145 141 158 147 193 164 166 124 183 188 183 200 166 205 247 242 248 252 241 258 279 286 275 292 306 305
199 199 190 182 207 195 202 188 186 177 185 169 163 184 178 152 155 166 139 149 213 199 171 209 162 207 218 218 237 246 244 261 278 280 273 294 303 307
189 169 179 214 199 188 210 192 199 192 180 189 191 190 168 171 161 169 179 187 201 158 126 180 169 207 206 230 239 239 248 269 273 276 289 299 310 313
196 195 201 194 197 179 173 175 183 190 176 188 192 176 179 173 186 180 175 134 73 74 102 172 127 226 110 244 253 259 267 244 277 301 309 313 312 311
184 188 192 194 192 186 192 191 177 162 171 170 153 156 164 173 158 128 149 155 144 178 183 133 169 154 205 279 289 253 190 272 309 320 316 320 320 318
177 190 202 196 192 199 203 172 181 174 140 116 102 122 156 171 170 169 157 172 121 137 190 145 137 113 293 229 215 249 313 285 338 331 327 327 326 316
177 202 236 216 225 212 174 179 191 143 136 113 105 88 89 86 81 84 114 148 138 114 157 108 120 136 164 279 268 235 240 295 313 314 324 329 322 315
190 180 185 205 204 183 167 172 157 133 121 122 123 119 116 111 94 81 77 86 55 114 139 115 143 150 147 259 261 324 278 288 296 309 310 315 310 304
163 187 188 196 188 156 151 161 143 136 136 136 135 121 111 115 107 94 82 80 74 76 87 106 131 147 142 167 220 265 328 294 300 305 319 314 300 297
140 154 180 173 146 139 147 155 133 142 148 141 128 111 123 128 123 106 105 110 88 69 55 91 122 122 120 204 196 257 219 287 315 320 307 302 291 274
110 87 96 120 129 131 100 115 115 135 139 130 138 148 146 135 124 129 109 94 93 123 143 327 90 110 208 184 257 225 289 294 293 309 325 308 293 284
122 132 111 172 165 153 143 141 147 153 143 140 141 147 140 133 125 100 91 94 113 121 119 83 24 6 347 306 192 216 291 236 278 289 285 295 298 304
194 165 165 183 174 160 159 164 157 147 135 142 145 137 136 140 147 146 120 125 117 118 112 114 87 93 49 309 306 225 180 274 300 298 256 228 275 289
156 158 171 168 169 163 162 149 138 140 145 145 145 142 144 142 143 153 157 135 127 94 75 29 92 147 145 210 265 273 273 279 237 284 295 292 277 280
162 160 159 167 164 161 156 154 159 157 154 149 148 146 146 146 150 148 156 152 133 102 118 156 233 184 134 50 4 290 275 273 271 264 283 299 299 302
180 175 174 171 170 166 161 160 153 158 151 149 147 146 145 146 150 152 150 140 136 142 158 223 358 55 67 168 256 267 291 296 293 279 274 253 190 290
176 167 175 173 170 167 165 161 160 152 158 151 147 143 144 145 146 140 128 124 126 115 138 180 15 85 188 183 274 274 288 294 287 312 275 263 269 277